SCP
-0 0 0 0 0 0 0 0 0 0 0 0 0 0 0 0 0 0 0 0 0 0 0 0 0 0 0 0 0 0 0 0 0 0 0 0 0 0 0 0 0 0 0
0 0 0 0 0 0 0 0 0 0 0 0 0 0 0 0 0 0 0 0 0 0 0 0 0 0 0 0 0 0 0 0 0 0 0 0 0 0 0 0 0 0 0
0 0 0 0 0 0 0 0 0 0 0 0 0 0 0 0 0 0 0 0 0 0 0 0 0 0 0 0 0 0 0 0 0 0 0 0 0 0 0 0 0 0 0
0 0 0 0 0 0 0 0 0 0 0 0 0 0 0 0 0 0 0 0 0 0 0 0 0 0 0 0 0 0 0 0 0 0 0 0 0 0 0 0 0 0 0
0 0 0 0 0 0 0 0 0 0 0 0 0 0 0 0 0 0 0 0 0 0 0 0 0 0 0 0 0 0 0 0 0 0 0 0 0 0 0 0 0 0 0
0 0 0 0 0 0 0 0 0 0 0 0 0 0 0 0 0 0 0 0 0 0 0 0 0 0 0 0 0 0 0 0 0 0 0 0 0 0 0 0 0 0 0
0 0 0 0 0 0 0 0 0 0 0 0 0 0 0 0 0 0 0 0 0 0 0 0 0 0 0 0 0 0 0 0 0 0 0 0 0 0 0 0 0 0 0
0 0 0 0 0 0 0 0 0 0 0 0 0 0 0 0 0 0 0 0 0 0 0 0 0 0 0 0 0 0 0 0 0 0 0 0 0 0 0 0 0 0 0
0 0 0 0 0 0 0 0 0 0 0 0 0 0 0 0 0 0 0 0 0 0 0 0 0 0 0 0 0 0 0 0 0 0 -0 -0 -0 -0 0 0 0 0 0
0 0 0 0 0 0 0 0 0 0 0 0 0 0 0 0 0 0 0 0 0 0 0 0 0 0 0 0 0 0 0 0 0 0 0 0 0 0 0 0 0 0 0
0 0 0 0 0 0 0 0 0 0 0 0 0 0 0 0 0 0 0 0 0 0 0 0 0 0 0 0 -0 0 0 0 0 0 0 0 0 0 0 0 0 0 0
0 0 0 0 0 0 0 0 0 0 0 0 0 0 0 0 0 0 0 0 0 0 0 0 0 0 0 0 0 -0 -0 0 0 0 0 0 0 0 0 0 0 0 0
0 0 0 0 0 0 0 0 0 0 0 0 0 0 0 0 0 0 0 0 0 0 0 0 0 0 0 0 0 0 0 0 0 0 0 0 0 0 0 0 0 0 0
0 0 0 0 0 0 0 0 0 0 0 0 0 0 0 0 0 0 0 0 0 0 0 0 0 0 0 0 0 0 0 0 0 0 0 0 0 0 0 0 0 0 0
0 0 0 0 0 0 0 0 0 0 0 0 0 0 0 0 0 0 0 0 0 0 0 0 0 0 0 0 0 0 0 0 0 0 0 0 -0 -0 0 0 0 0 0
0 0 0 0 0 0 0 0 0 0 0 0 0 0 0 0 0 0 0 0 0 0 0 0 0 0 0 0 0 0 0 0 0 0 0 0 -0 -0 -0 0 0 0 0
0 0 0 0 0 0 0 0 0 0 0 0 0 0 0 0 0 0 0 0 0 0 0 0 0 0 0 0 0 0 0 0 0 0 0 -0 -0 -0 -0 0 0 0 0
0 0 0 0 0 0 0 0 0 0 0 0 0 0 0 0 0 0 0 0 0 0 0 0 0 0 0 0 0 0 0 0 -0 -0 -0 -0 -0 -0 -0 0 0 0 0
0 0 0 0 0 0 0 0 0 0 0 0 0 0 0 0 0 0 0 0 0 0 0 0 0 0 0 0 0 0 -0 -0 -0 -0 -0 -0 -0 -0 0 0 0 0 0
0 0 0 0 0 0 0 0 0 0 0 0 0 0 0 0 0 0 0 0 0 0 0 0 0 0 0 -0 -0 -0 -0 -0 -0 -0 -0 -0 0 0 0 0 0 0 0
0 0 0 0 0 0 0 0 0 0 0 0 0 0 0 0 0 0 0 0 0 0 0 -0 -0 -0 -0 -0 -0 -0 -0 -0 -0 -0 -0 0 0 0 0 0 0 0 0
0 0 0 0 0 0 0 0 0 0 0 0 0 0 0 0 0 0 0 0 0 0 -0 -0 -0 -0 -0 -0 -0 -0 -0 -0 -0 -0 -0 0 0 0 0 0 0 0 0
0 0 0 0 0 0 0 0 0 0 0 0 0 0 0 0 0 -0 -0 -0 -0 -0 -0 -0 -0 -0 -0 -0 -0 -0 -0 -0 0 0 0 0 0 0 0 0 0 0 0
0 0 0 0 0 0 0 0 0 0 0 0 0 0 0 0 -0 -0 -0 -0 -0 -0 -0 -0 -0 -0 -0 -0 -0 -0 0 0 0 0 0 0 0 0 0 0 0 0 0
0 0 0 0 0 0 0 0 0 0 0 0 -0 -0 -0 -0 -0 -0 -0 -0 -0 -0 -0 -0 -0 0 0 -0 -0 -0 0 0 0 0 0 0 0 0 0 0 0 0 0
0 0 0 0 0 0 0 0 0 0 0 -0 -0 -0 -0 -0 0 0 0 -0 -0 -0 0 -0 0 -0 -0 -0 -0 0 0 0 0 0 0 0 0 0 0 0 0 0 0
Wind_Speed_500mb
77 79 84 87 87 83 80 76 73 70 65 72 67 67 69 66 62 58 54 48 45 42 39 40 39 36 38 38 38 41 44 46 57 62 57 56 57 56 58 57 58 65 69
79 82 85 90 87 83 76 69 68 69 61 65 69 54 63 62 57 53 47 40 38 35 34 36 38 36 40 39 41 44 46 46 53 60 57 56 54 56 58 61 61 64 67
82 83 85 87 86 78 77 71 61 62 55 62 71 59 51 53 53 47 40 35 33 34 37 41 42 39 40 38 38 41 42 44 47 54 59 58 58 56 62 62 60 58 58
84 84 83 84 85 82 76 71 65 53 52 59 64 60 50 42 45 43 45 39 34 38 46 45 39 36 36 34 36 38 40 45 47 53 59 61 60 55 49 52 58 52 55
83 81 80 81 81 83 80 76 70 53 50 48 52 57 47 48 57 44 35 26 43 47 44 40 39 36 36 36 39 39 42 45 47 51 56 54 50 49 50 49 55 58 63
78 76 77 81 81 81 79 77 69 61 51 51 53 52 62 63 48 47 37 35 43 48 47 43 41 39 37 38 41 44 45 45 48 49 50 49 55 53 58 57 59 63 64
73 75 77 83 85 79 78 76 69 64 63 61 57 50 56 55 56 53 38 43 55 52 48 46 41 39 38 39 41 44 45 44 47 47 55 53 58 58 56 62 62 58 60
73 75 77 83 83 80 76 71 65 61 60 64 56 46 50 57 52 26 42 53 52 50 48 43 41 39 36 39 43 46 48 48 47 50 52 54 53 50 51 51 53 61 68
74 77 78 81 83 80 76 73 69 64 62 57 52 48 46 35 28 42 37 41 45 47 43 42 40 38 32 36 43 46 49 50 46 47 48 46 48 52 54 59 65 60 67
77 81 80 79 79 78 75 71 66 61 55 50 43 31 22 31 26 28 31 35 39 42 42 40 36 38 36 36 40 41 47 46 48 53 54 53 53 54 44 49 57 66 67
80 82 84 80 77 74 74 71 67 60 55 48 40 31 30 29 28 26 25 26 32 36 38 37 35 33 36 36 35 41 48 48 50 54 58 62 67 67 63 57 47 50 63
84 88 90 84 79 73 71 70 67 59 53 50 46 41 35 30 29 24 18 26 34 37 39 36 34 34 35 34 36 41 42 46 53 58 63 67 67 64 54 49 45 45 50
90 93 90 88 81 74 69 69 67 61 54 52 48 48 43 33 29 27 31 34 33 38 45 40 39 35 37 39 44 46 47 49 50 51 58 64 61 56 57 53 48 51 53
100 98 91 88 84 78 73 67 65 59 57 50 52 53 52 45 37 34 33 38 40 42 40 41 42 44 41 46 50 51 52 55 51 54 57 60 61 62 59 47 50 49 43
98 91 85 78 78 80 76 68 56 57 49 51 52 52 52 52 47 41 36 35 36 36 40 48 52 56 58 62 59 54 51 49 48 51 55 59 64 63 59 49 48 39 45
83 76 74 72 77 75 71 73 62 52 46 44 45 42 45 44 38 36 37 38 40 42 44 53 59 60 61 62 63 59 54 48 45 52 59 63 66 64 61 58 45 40 49
66 69 74 73 68 64 60 71 76 67 52 46 40 37 36 38 37 43 44 44 41 37 44 53 59 61 62 62 62 60 61 56 56 61 66 68 68 67 57 50 40 42 52
66 79 69 67 67 63 82 62 63 64 66 67 53 45 39 36 35 32 30 33 42 45 52 58 61 58 56 55 57 59 61 62 62 63 63 59 57 51 49 42 43 46 52
83 82 74 68 61 59 64 63 63 60 61 67 63 47 35 34 35 32 31 35 43 46 45 46 47 50 53 53 56 57 55 54 55 56 53 49 41 38 38 38 41 48 46
77 70 59 53 50 65 70 59 57 50 57 59 59 54 48 41 40 40 38 39 42 46 49 51 54 55 55 56 57 54 53 56 54 54 51 43 32 31 38 37 42 46 45
69 66 59 59 65 55 55 55 54 57 61 55 55 49 43 42 49 48 47 45 44 46 48 50 54 57 57 58 55 55 59 60 54 49 38 28 23 30 31 38 42 38 39
65 67 57 54 53 55 64 64 56 52 54 53 55 53 44 43 45 47 47 45 43 44 45 49 54 57 57 52 50 52 54 53 48 39 33 29 23 21 30 37 33 34 38
63 56 52 51 52 58 64 56 52 51 53 53 54 53 49 50 51 51 49 48 47 48 49 52 54 54 50 47 45 44 45 45 38 32 32 30 22 23 28 32 29 30 28
58 53 51 51 55 63 61 58 54 51 52 53 53 52 53 53 52 52 52 50 51 53 53 53 50 46 45 40 37 36 36 33 30 29 32 30 26 23 27 28 24 25 23
55 52 50 51 56 63 61 59 58 57 56 55 56 55 53 52 52 51 51 51 53 54 52 48 45 42 36 32 32 30 28 26 25 26 32 33 29 26 26 23 20 20 17
52 51 51 51 55 54 57 60 62 61 60 58 55 52 50 49 49 51 51 50 49 48 47 43 38 32 29 26 22 21 21 21 23 26 29 31 30 27 22 17 17 14 10
Wind_Direction_500mb
339 336 333 329 326 322 317 315 314 303 302 301 294 290 278 274 269 264 262 260 258 258 257 260 260 260 261 261 261 262 263 264 269 276 277 282 285 286 284 282 279 282 283
336 335 334 334 329 330 322 318 316 306 302 300 295 281 282 275 266 260 261 263 266 268 269 269 271 270 269 269 267 268 268 269 273 280 284 286 287 289 289 288 285 282 283
335 334 333 333 332 330 327 324 321 309 300 292 297 285 268 274 268 259 253 250 254 264 275 277 277 274 274 275 275 274 276 276 276 281 286 288 288 287 288 289 287 283 285
332 330 330 332 332 331 327 324 327 315 299 286 291 278 269 266 260 255 256 256 266 268 266 264 266 267 269 271 272 276 279 280 282 284 286 290 292 294 292 296 294 293 293
329 330 333 332 333 333 329 326 320 322 319 310 306 279 259 251 253 262 263 265 267 265 263 263 264 266 269 272 274 277 278 281 283 285 288 293 293 294 292 294 287 292 294
329 333 335 336 335 335 333 330 323 321 317 317 308 287 263 247 267 256 259 265 272 271 267 267 268 268 270 273 274 276 277 279 281 284 285 280 284 284 294 292 292 293 294
329 332 336 337 336 335 336 333 328 323 318 315 309 298 274 261 257 274 267 266 267 270 268 269 270 271 272 274 273 274 275 276 278 284 281 280 282 290 287 285 289 292 293
328 331 336 336 336 336 336 336 332 328 320 314 309 301 281 269 272 255 271 267 267 268 271 271 273 276 278 278 278 276 278 280 287 286 285 290 290 294 295 292 293 296 297
328 330 332 334 335 335 337 339 337 336 328 322 314 307 294 284 271 273 269 264 266 269 271 271 271 275 278 277 279 279 282 286 289 292 293 286 286 285 281 286 284 285 290
330 326 328 330 331 333 335 336 337 336 328 328 322 313 309 292 285 272 266 266 273 277 276 277 281 280 276 273 276 283 287 295 300 300 298 297 297 294 289 270 274 281 284
327 324 324 326 327 328 331 335 334 332 329 323 321 318 307 296 288 284 276 281 288 287 285 284 280 279 279 277 275 281 287 298 297 294 296 297 297 296 295 293 277 277 284
324 323 321 321 322 324 325 329 331 329 327 328 317 306 298 298 291 274 274 285 294 297 297 292 292 287 283 278 277 279 284 288 285 284 288 294 297 302 301 292 280 276 279
320 322 320 319 320 320 322 322 326 328 326 324 326 314 303 297 293 292 266 262 287 293 292 294 294 291 285 279 276 280 281 282 292 287 292 295 299 301 303 296 289 277 270
322 321 319 318 319 318 318 320 320 322 323 320 323 319 315 304 291 286 289 281 286 280 280 288 293 291 286 286 290 291 290 291 290 289 292 296 299 301 302 299 296 290 281
318 315 316 316 316 317 316 318 316 310 313 311 306 308 308 308 303 298 290 285 285 291 297 292 289 290 291 295 297 297 297 297 291 291 292 294 296 298 298 299 294 286 287
316 316 315 315 316 319 319 316 312 308 307 302 303 300 299 287 295 284 278 272 269 271 274 275 279 283 288 293 296 298 300 299 292 289 286 288 288 290 289 294 287 285 289
320 321 316 318 318 319 317 312 314 313 313 311 312 310 304 301 300 283 275 274 275 275 269 271 273 280 286 290 290 289 290 289 288 286 287 287 286 286 288 287 284 287 288
319 313 319 318 317 308 313 315 315 312 316 318 318 316 313 307 303 297 296 290 276 268 267 272 277 281 284 287 288 289 290 290 288 288 288 287 286 284 280 277 286 288 291
317 317 316 314 312 317 319 316 312 313 309 310 315 318 319 309 305 302 295 279 279 284 286 285 285 286 287 286 285 287 289 289 291 291 289 286 286 284 278 278 286 290 291
321 322 324 324 318 309 315 314 312 312 309 311 314 318 320 319 318 311 306 304 301 299 300 299 298 296 293 290 289 289 289 290 289 287 284 281 275 283 286 286 288 289 290
324 325 325 311 315 323 327 326 319 313 313 313 312 316 313 309 297 299 300 299 299 298 297 296 294 291 289 290 290 287 286 288 287 284 276 262 278 294 298 292 287 287 292
324 323 325 326 327 331 330 321 319 315 317 315 314 316 315 307 308 307 306 303 301 300 301 298 294 291 292 291 286 282 281 281 280 277 260 249 273 294 297 286 285 291 295
331 331 329 331 333 329 327 329 326 322 321 319 317 317 318 316 314 312 309 307 306 306 304 300 297 295 293 288 284 281 278 279 277 261 242 244 265 284 296 290 290 294 296
337 335 332 332 335 328 333 333 332 329 325 323 322 321 319 317 315 313 312 311 308 307 305 303 299 294 290 287 283 280 276 271 263 245 230 239 256 274 287 286 292 299 291
338 334 335 333 331 329 333 335 335 334 331 329 326 322 320 318 316 316 315 312 309 307 305 301 295 292 285 277 276 273 268 258 247 228 224 234 255 270 278 282 288 288 281
338 338 333 334 331 332 333 335 335 335 333 330 327 324 322 320 319 318 316 315 313 309 306 303 297 288 280 277 272 266 254 239 223 216 227 241 254 262 268 270 275 270 240
Wind_Speed_850mb
77 79 84 87 87 83 80 76 73 70 65 72 67 67 69 66 62 58 54 48 45 42 39 40 39 36 38 38 38 41 44 46 57 62 57 56 57 56 58 57 58 65 69
79 82 85 90 87 83 76 69 68 69 61 65 69 54 63 62 57 53 47 40 38 35 34 36 38 36 40 39 41 44 46 46 53 60 57 56 54 56 58 61 61 64 67
82 83 85 87 86 78 77 71 61 62 55 62 71 59 51 53 53 47 40 35 33 34 37 41 42 39 40 38 38 41 42 44 47 54 59 58 58 56 62 62 60 58 58
84 84 83 84 85 82 76 71 65 53 52 59 64 60 50 42 45 43 45 39 34 38 46 45 39 36 36 34 36 38 40 45 47 53 59 61 60 55 49 52 58 52 55
83 81 80 81 81 83 80 76 70 53 50 48 52 57 47 48 57 44 35 26 43 47 44 40 39 36 36 36 39 39 42 45 47 51 56 54 50 49 50 49 55 58 63
78 76 77 81 81 81 79 77 69 61 51 51 53 52 62 63 48 47 37 35 43 48 47 43 41 39 37 38 41 44 45 45 48 49 50 49 55 53 58 57 59 63 64
73 75 77 83 85 79 78 76 69 64 63 61 57 50 56 55 56 53 38 43 55 52 48 46 41 39 38 39 41 44 45 44 47 47 55 53 58 58 56 62 62 58 60
73 75 77 83 83 80 76 71 65 61 60 64 56 46 50 57 52 26 42 53 52 50 48 43 41 39 36 39 43 46 48 48 47 50 52 54 53 50 51 51 53 61 68
74 77 78 81 83 80 76 73 69 64 62 57 52 48 46 35 28 42 37 41 45 47 43 42 40 38 32 36 43 46 49 50 46 47 48 46 48 52 54 59 65 60 67
77 81 80 79 79 78 75 71 66 61 55 50 43 31 22 31 26 28 31 35 39 42 42 40 36 38 36 36 40 41 47 46 48 53 54 53 53 54 44 49 57 66 67
80 82 84 80 77 74 74 71 67 60 55 48 40 31 30 29 28 26 25 26 32 36 38 37 35 33 36 36 35 41 48 48 50 54 58 62 67 67 63 57 47 50 63
84 88 90 84 79 73 71 70 67 59 53 50 46 41 35 30 29 24 18 26 34 37 39 36 34 34 35 34 36 41 42 46 53 58 63 67 67 64 54 49 45 45 50
90 93 90 88 81 74 69 69 67 61 54 52 48 48 43 33 29 27 31 34 33 38 45 40 39 35 37 39 44 46 47 49 50 51 58 64 61 56 57 53 48 51 53
100 98 91 88 84 78 73 67 65 59 57 50 52 53 52 45 37 34 33 38 40 42 40 41 42 44 41 46 50 51 52 55 51 54 57 60 61 62 59 47 50 49 43
98 91 85 78 78 80 76 68 56 57 49 51 52 52 52 52 47 41 36 35 36 36 40 48 52 56 58 62 59 54 51 49 48 51 55 59 64 63 59 49 48 39 45
83 76 74 72 77 75 71 73 62 52 46 44 45 42 45 44 38 36 37 38 40 42 44 53 59 60 61 62 63 59 54 48 45 52 59 63 66 64 61 58 45 40 49
66 69 74 73 68 64 60 71 76 67 52 46 40 37 36 38 37 43 44 44 41 37 44 53 59 61 62 62 62 60 61 56 56 61 66 68 68 67 57 50 40 42 52
66 79 69 67 67 63 82 62 63 64 66 67 53 45 39 36 35 32 30 33 42 45 52 58 61 58 56 55 57 59 61 62 62 63 63 59 57 51 49 42 43 46 52
83 82 74 68 61 59 64 63 63 60 61 67 63 47 35 34 35 32 31 35 43 46 45 46 47 50 53 53 56 57 55 54 55 56 53 49 41 38 38 38 41 48 46
77 70 59 53 50 65 70 59 57 50 57 59 59 54 48 41 40 40 38 39 42 46 49 51 54 55 55 56 57 54 53 56 54 54 51 43 32 31 38 37 42 46 45
69 66 59 59 65 55 55 55 54 57 61 55 55 49 43 42 49 48 47 45 44 46 48 50 54 57 57 58 55 55 59 60 54 49 38 28 23 30 31 38 42 38 39
65 67 57 54 53 55 64 64 56 52 54 53 55 53 44 43 45 47 47 45 43 44 45 49 54 57 57 52 50 52 54 53 48 39 33 29 23 21 30 37 33 34 38
63 56 52 51 52 58 64 56 52 51 53 53 54 53 49 50 51 51 49 48 47 48 49 52 54 54 50 47 45 44 45 45 38 32 32 30 22 23 28 32 29 30 28
58 53 51 51 55 63 61 58 54 51 52 53 53 52 53 53 52 52 52 50 51 53 53 53 50 46 45 40 37 36 36 33 30 29 32 30 26 23 27 28 24 25 23
55 52 50 51 56 63 61 59 58 57 56 55 56 55 53 52 52 51 51 51 53 54 52 48 45 42 36 32 32 30 28 26 25 26 32 33 29 26 26 23 20 20 17
52 51 51 51 55 54 57 60 62 61 60 58 55 52 50 49 49 51 51 50 49 48 47 43 38 32 29 26 22 21 21 21 23 26 29 31 30 27 22 17 17 14 10
Wind_Direction_850mb
339 336 333 329 326 322 317 315 314 303 302 301 294 290 278 274 269 264 262 260 258 258 257 260 260 260 261 261 261 262 263 264 269 276 277 282 285 286 284 282 279 282 283
336 335 334 334 329 330 322 318 316 306 302 300 295 281 282 275 266 260 261 263 266 268 269 269 271 270 269 269 267 268 268 269 273 280 284 286 287 289 289 288 285 282 283
335 334 333 333 332 330 327 324 321 309 300 292 297 285 268 274 268 259 253 250 254 264 275 277 277 274 274 275 275 274 276 276 276 281 286 288 288 287 288 289 287 283 285
332 330 330 332 332 331 327 324 327 315 299 286 291 278 269 266 260 255 256 256 266 268 266 264 266 267 269 271 272 276 279 280 282 284 286 290 292 294 292 296 294 293 293
329 330 333 332 333 333 329 326 320 322 319 310 306 279 259 251 253 262 263 265 267 265 263 263 264 266 269 272 274 277 278 281 283 285 288 293 293 294 292 294 287 292 294
329 333 335 336 335 335 333 330 323 321 317 317 308 287 263 247 267 256 259 265 272 271 267 267 268 268 270 273 274 276 277 279 281 284 285 280 284 284 294 292 292 293 294
329 332 336 337 336 335 336 333 328 323 318 315 309 298 274 261 257 274 267 266 267 270 268 269 270 271 272 274 273 274 275 276 278 284 281 280 282 290 287 285 289 292 293
328 331 336 336 336 336 336 336 332 328 320 314 309 301 281 269 272 255 271 267 267 268 271 271 273 276 278 278 278 276 278 280 287 286 285 290 290 294 295 292 293 296 297
328 330 332 334 335 335 337 339 337 336 328 322 314 307 294 284 271 273 269 264 266 269 271 271 271 275 278 277 279 279 282 286 289 292 293 286 286 285 281 286 284 285 290
330 326 328 330 331 333 335 336 337 336 328 328 322 313 309 292 285 272 266 266 273 277 276 277 281 280 276 273 276 283 287 295 300 300 298 297 297 294 289 270 274 281 284
327 324 324 326 327 328 331 335 334 332 329 323 321 318 307 296 288 284 276 281 288 287 285 284 280 279 279 277 275 281 287 298 297 294 296 297 297 296 295 293 277 277 284
324 323 321 321 322 324 325 329 331 329 327 328 317 306 298 298 291 274 274 285 294 297 297 292 292 287 283 278 277 279 284 288 285 284 288 294 297 302 301 292 280 276 279
320 322 320 319 320 320 322 322 326 328 326 324 326 314 303 297 293 292 266 262 287 293 292 294 294 291 285 279 276 280 281 282 292 287 292 295 299 301 303 296 289 277 270
322 321 319 318 319 318 318 320 320 322 323 320 323 319 315 304 291 286 289 281 286 280 280 288 293 291 286 286 290 291 290 291 290 289 292 296 299 301 302 299 296 290 281
318 315 316 316 316 317 316 318 316 310 313 311 306 308 308 308 303 298 290 285 285 291 297 292 289 290 291 295 297 297 297 297 291 291 292 294 296 298 298 299 294 286 287
316 316 315 315 316 319 319 316 312 308 307 302 303 300 299 287 295 284 278 272 269 271 274 275 279 283 288 293 296 298 300 299 292 289 286 288 288 290 289 294 287 285 289
320 321 316 318 318 319 317 312 314 313 313 311 312 310 304 301 300 283 275 274 275 275 269 271 273 280 286 290 290 289 290 289 288 286 287 287 286 286 288 287 284 287 288
319 313 319 318 317 308 313 315 315 312 316 318 318 316 313 307 303 297 296 290 276 268 267 272 277 281 284 287 288 289 290 290 288 288 288 287 286 284 280 277 286 288 291
317 317 316 314 312 317 319 316 312 313 309 310 315 318 319 309 305 302 295 279 279 284 286 285 285 286 287 286 285 287 289 289 291 291 289 286 286 284 278 278 286 290 291
321 322 324 324 318 309 315 314 312 312 309 311 314 318 320 319 318 311 306 304 301 299 300 299 298 296 293 290 289 289 289 290 289 287 284 281 275 283 286 286 288 289 290
324 325 325 311 315 323 327 326 319 313 313 313 312 316 313 309 297 299 300 299 299 298 297 296 294 291 289 290 290 287 286 288 287 284 276 262 278 294 298 292 287 287 292
324 323 325 326 327 331 330 321 319 315 317 315 314 316 315 307 308 307 306 303 301 300 301 298 294 291 292 291 286 282 281 281 280 277 260 249 273 294 297 286 285 291 295
331 331 329 331 333 329 327 329 326 322 321 319 317 317 318 316 314 312 309 307 306 306 304 300 297 295 293 288 284 281 278 279 277 261 242 244 265 284 296 290 290 294 296
337 335 332 332 335 328 333 333 332 329 325 323 322 321 319 317 315 313 312 311 308 307 305 303 299 294 290 287 283 280 276 271 263 245 230 239 256 274 287 286 292 299 291
338 334 335 333 331 329 333 335 335 334 331 329 326 322 320 318 316 316 315 312 309 307 305 301 295 292 285 277 276 273 268 258 247 228 224 234 255 270 278 282 288 288 281
338 338 333 334 331 332 333 335 335 335 333 330 327 324 322 320 319 318 316 315 313 309 306 303 297 288 280 277 272 266 254 239 223 216 227 241 254 262 268 270 275 270 240